| time (UTC) | temp F | wind direction | speed MPH | gust MPH | rain 1hr in | rain 24hr in | rain mn in | humidity % | barometer mb |
| 20260510124543 | 54 | 90 | 3.0 | 14.0 | 0.00 | 0.00 | 0.00 | 65 | 1016.4 |
| 20260510123643 | 54 | 68 | 4.0 | 13.0 | 0.00 | 0.00 | 0.00 | 66 | 1017.1 |
| 20260510122743 | 54 | 39 | 4.0 | 16.0 | 0.00 | 0.00 | 0.00 | 65 | 1016.6 |
| 20260510121843 | 54 | 19 | 5.0 | 16.0 | 0.00 | 0.00 | 0.00 | 66 | 1016.6 |
| 20260510120943 | 55 | 33 | 4.0 | 16.0 | 0.00 | 0.00 | 0.00 | 65 | 1016.6 |
| 20260510120043 | 54 | 26 | 4.0 | 13.0 | 0.00 | 0.00 | 0.00 | 66 | 1016.7 |
| 20260510115443 | 55 | 22 | 5.0 | 16.0 | 0.00 | 0.00 | 0.00 | 66 | 1016.6 |
| 20260510114543 | 55 | 45 | 4.0 | 16.0 | 0.00 | 0.00 | 0.00 | 65 | 1016.7 |
| 20260510113643 | 55 | 46 | 4.0 | 12.0 | 0.00 | 0.00 | 0.00 | 65 | 1016.9 |
| 20260510112804 | 55 | 38 | 4.0 | 14.0 | 0.00 | 0.00 | 0.00 | 65 | 1017.1 |
| 20260510111843 | 55 | 29 | 4.0 | 14.0 | 0.00 | 0.00 | 0.00 | 65 | 1017.1 |
| 20260510110943 | 55 | 27 | 4.0 | 13.0 | 0.00 | 0.00 | 0.00 | 65 | 1017.3 |
| 20260510110043 | 55 | 34 | 3.0 | 13.0 | 0.00 | 0.00 | 0.00 | 65 | 1017.2 |
| 20260510105443 | 55 | 42 | 4.0 | 12.0 | 0.00 | 0.00 | 0.00 | 66 | 1017.1 |
| 20260510104543 | 55 | 23 | 5.0 | 13.0 | 0.00 | 0.00 | 0.00 | 66 | 1017.2 |
| 20260510103643 | 55 | 21 | 4.0 | 16.0 | 0.00 | 0.00 | 0.00 | 65 | 1017.1 |
| 20260510102804 | 55 | 22 | 5.0 | 16.0 | 0.00 | 0.00 | 0.00 | 65 | 1017.2 |
| 20260510101842 | 55 | 31 | 5.0 | 16.0 | 0.00 | 0.00 | 0.00 | 66 | 1017.1 |
| 20260510100942 | 55 | 27 | 5.0 | 14.0 | 0.00 | 0.00 | 0.00 | 66 | 1017.2 |
| 20260510100043 | 55 | 20 | 4.0 | 14.0 | 0.00 | 0.00 | 0.00 | 67 | 1017.1 |
| 20260510095443 | 55 | 30 | 4.0 | 13.0 | 0.00 | 0.00 | 0.00 | 67 | 1017.2 |
| 20260510094603 | 55 | 23 | 4.0 | 17.0 | 0.00 | 0.00 | 0.00 | 68 | 1017.1 |
| 20260510093703 | 55 | 31 | 5.0 | 17.0 | 0.00 | 0.00 | 0.00 | 69 | 1017.1 |
| 20260510092804 | 54 | 36 | 4.0 | 13.0 | 0.00 | 0.00 | 0.00 | 69 | 1017.1 |
| 20260510090942 | 54 | 31 | 4.0 | 16.0 | 0.00 | 0.00 | 0.00 | 70 | 1017.1 |
| 20260510090042 | 54 | 28 | 5.0 | 14.0 | 0.00 | 0.00 | 0.00 | 70 | 1017.3 |
| 20260510085442 | 54 | 32 | 5.0 | 14.0 | 0.00 | 0.00 | 0.00 | 70 | 1017.3 |
| 20260510084555 | 53 | 33 | 5.0 | 16.0 | 0.00 | 0.00 | 0.00 | 71 | 1017.5 |
| 20260510083704 | 53 | 37 | 4.0 | 16.0 | 0.00 | 0.00 | 0.00 | 71 | 1017.5 |
| 20260510082742 | 53 | 48 | 4.0 | 16.0 | 0.00 | 0.00 | 0.00 | 72 | 1017.6 |
| 20260510081842 | 53 | 50 | 5.0 | 14.0 | 0.00 | 0.00 | 0.00 | 72 | 1017.6 |
| 20260510080942 | 52 | 30 | 5.0 | 18.0 | 0.00 | 0.00 | 0.00 | 73 | 1017.5 |
| 20260510080042 | 52 | 29 | 4.0 | 13.0 | 0.00 | 0.00 | 0.00 | 75 | 1017.6 |
| 20260510075442 | 52 | 30 | 5.0 | 17.0 | 0.00 | 0.00 | 0.00 | 75 | 1017.6 |
| 20260510074542 | 52 | 34 | 4.0 | 17.0 | 0.00 | 0.00 | 0.00 | 76 | 1017.6 |
| 20260510073642 | 52 | 39 | 4.0 | 13.0 | 0.00 | 0.00 | 0.00 | 76 | 1017.5 |
| 20260510072742 | 52 | 33 | 4.0 | 13.0 | 0.00 | 0.00 | 0.00 | 77 | 1017.5 |
| 20260510071842 | 51 | 27 | 4.0 | 13.0 | 0.00 | 0.00 | 0.00 | 78 | 1017.6 |
| 20260510071003 | 51 | 31 | 5.0 | 13.0 | 0.00 | 0.00 | 0.00 | 79 | 1017.6 |
| 20260510070042 | 51 | 37 | 4.0 | 12.0 | 0.00 | 0.00 | 0.00 | 79 | 1017.5 |
| 20260510065442 | 51 | 27 | 4.0 | 14.0 | 0.00 | 0.00 | 0.00 | 80 | 1017.6 |
| 20260510064542 | 50 | 33 | 3.0 | 11.0 | 0.00 | 0.00 | 0.00 | 80 | 1017.5 |
| 20260510063642 | 50 | 38 | 4.0 | 13.0 | 0.00 | 0.00 | 0.00 | 80 | 1017.6 |
| 20260510062742 | 50 | 38 | 4.0 | 13.0 | 0.00 | 0.00 | 0.00 | 81 | 1017.3 |
| 20260510061842 | 50 | 31 | 3.0 | 13.0 | 0.00 | 0.00 | 0.00 | 81 | 1017.4 |
| 20260510060942 | 50 | 22 | 4.0 | 13.0 | 0.00 | 0.00 | 0.00 | 81 | 1017.4 |
| 20260510060042 | 50 | 10 | 4.0 | 13.0 | 0.00 | 0.00 | 0.00 | 82 | 1017.3 |
| 20260510055442 | 50 | 12 | 4.0 | 13.0 | 0.00 | 0.00 | 0.00 | 82 | 1017.2 |
| 20260510054542 | 50 | 25 | 3.0 | 13.0 | 0.00 | 0.00 | 0.00 | 82 | 1017.1 |
| 20260510053642 | 50 | 18 | 4.0 | 14.0 | 0.00 | 0.00 | 0.00 | 82 | 1017.0 |
| 20260510052742 | 50 | 20 | 4.0 | 14.0 | 0.00 | 0.00 | 0.00 | 82 | 1016.9 |
| 20260510051842 | 49 | 20 | 4.0 | 13.0 | 0.00 | 0.00 | 0.00 | 82 | 1016.9 |
| 20260510050942 | 49 | 13 | 4.0 | 14.0 | 0.00 | 0.00 | 0.00 | 83 | 1017.0 |
| 20260510050103 | 49 | 19 | 3.0 | 14.0 | 0.00 | 0.00 | 0.00 | 83 | 1017.0 |
| 20260510045442 | 49 | 15 | 4.0 | 11.0 | 0.00 | 0.00 | 0.00 | 83 | 1017.0 |
| 20260510044542 | 49 | 30 | 4.0 | 13.0 | 0.00 | 0.00 | 0.00 | 83 | 1017.0 |
| 20260510043642 | 49 | 22 | 3.0 | 12.0 | 0.00 | 0.00 | 0.00 | 83 | 1016.9 |
| 20260510042742 | 49 | 19 | 3.0 | 12.0 | 0.00 | 0.00 | 0.00 | 84 | 1017.1 |
| 20260510041903 | 49 | 20 | 2.0 | 10.0 | 0.00 | 0.00 | 0.00 | 84 | 1017.1 |
| 20260510040942 | 49 | 24 | 2.0 | 8.0 | 0.00 | 0.00 | 0.00 | 84 | 1017.2 |
| 20260510040103 | 49 | 33 | 2.0 | 8.0 | 0.00 | 0.00 | 0.00 | 84 | 1017.2 |
| 20260510035442 | 49 | 25 | 3.0 | 8.0 | 0.00 | 0.00 | 0.00 | 84 | 1017.2 |
| 20260510034542 | 49 | 29 | 3.0 | 11.0 | 0.00 | 0.00 | 0.00 | 84 | 1017.3 |
| 20260510033642 | 49 | 24 | 2.0 | 8.0 | 0.00 | 0.00 | 0.00 | 84 | 1017.4 |
| 20260510032742 | 49 | 23 | 3.0 | 8.0 | 0.00 | 0.00 | 0.00 | 84 | 1017.5 |
| 20260510031903 | 49 | 14 | 3.0 | 11.0 | 0.00 | 0.00 | 0.00 | 84 | 1017.5 |
| 20260510030942 | 49 | 17 | 3.0 | 12.0 | 0.00 | 0.00 | 0.00 | 84 | 1017.5 |
| 20260510030042 | 49 | 17 | 3.0 | 12.0 | 0.00 | 0.00 | 0.00 | 84 | 1017.5 |
| 20260510025442 | 49 | 16 | 3.0 | 12.0 | 0.00 | 0.00 | 0.00 | 84 | 1017.6 |
| 20260510024542 | 49 | 15 | 3.0 | 10.0 | 0.00 | 0.00 | 0.00 | 84 | 1017.6 |
| 20260510023642 | 49 | 17 | 3.0 | 12.0 | 0.00 | 0.00 | 0.00 | 83 | 1017.5 |
| 20260510022742 | 49 | 15 | 3.0 | 12.0 | 0.00 | 0.00 | 0.00 | 83 | 1017.4 |
| 20260510021903 | 49 | 9 | 4.0 | 12.0 | 0.00 | 0.00 | 0.00 | 82 | 1017.4 |
| 20260510020942 | 49 | 17 | 4.0 | 12.0 | 0.00 | 0.00 | 0.00 | 81 | 1017.5 |
| 20260510020042 | 50 | 26 | 2.0 | 10.0 | 0.00 | 0.00 | 0.00 | 80 | 1017.7 |
| 20260510015442 | 50 | 21 | 2.0 | 10.0 | 0.00 | 0.00 | 0.00 | 79 | 1017.9 |
| 20260510014542 | 50 | 24 | 2.0 | 10.0 | 0.00 | 0.00 | 0.00 | 78 | 1017.9 |
| 20260510013642 | 50 | 32 | 3.0 | 11.0 | 0.00 | 0.00 | 0.00 | 77 | 1017.8 |
| 20260510012742 | 50 | 37 | 2.0 | 7.0 | 0.00 | 0.00 | 0.00 | 76 | 1017.8 |
| 20260510011842 | 51 | 5 | 3.0 | 10.0 | 0.00 | 0.00 | 0.00 | 75 | 1017.8 |
| 20260510010942 | 51 | 18 | 2.0 | 11.0 | 0.00 | 0.00 | 0.00 | 75 | 1017.6 |
| 20260510010042 | 51 | 30 | 2.0 | 11.0 | 0.00 | 0.00 | 0.00 | 75 | 1017.5 |
| 20260510005442 | 51 | 29 | 2.0 | 11.0 | 0.00 | 0.00 | 0.00 | 75 | 1017.6 |
| 20260510004542 | 52 | 30 | 2.0 | 12.0 | 0.00 | 0.00 | 0.00 | 74 | 1017.5 |
| 20260510003642 | 52 | 26 | 3.0 | 12.0 | 0.00 | 0.00 | 0.00 | 73 | 1017.6 |
| 20260510002742 | 52 | 20 | 3.0 | 10.0 | 0.00 | 0.00 | 0.00 | 72 | 1017.7 |
| 20260510001903 | 53 | 23 | 3.0 | 10.0 | 0.00 | 0.00 | 0.00 | 71 | 1017.7 |
| 20260510001003 | 53 | 22 | 3.0 | 11.0 | 0.00 | 0.00 | 0.00 | 70 | 1017.7 |
| 20260510000042 | 53 | 18 | 3.0 | 10.0 | 0.00 | 0.00 | 0.00 | 68 | 1017.8 |
| 20260509235442 | 53 | 22 | 2.0 | 10.0 | 0.00 | 0.00 | 0.00 | 67 | 1017.7 |
| 20260509234542 | 54 | 43 | 2.0 | 6.0 | 0.00 | 0.00 | 0.00 | 66 | 1017.7 |
| 20260509233642 | 54 | 36 | 2.0 | 8.0 | 0.00 | 0.00 | 0.00 | 65 | 1017.8 |
| 20260509232742 | 54 | 45 | 2.0 | 8.0 | 0.00 | 0.00 | 0.00 | 64 | 1017.9 |
| 20260509231842 | 54 | 43 | 2.0 | 8.0 | 0.00 | 0.00 | 0.00 | 63 | 1018.0 |
| 20260509230942 | 54 | 40 | 2.0 | 11.0 | 0.00 | 0.00 | 0.00 | 61 | 1018.0 |
| 20260509230043 | 55 | 36 | 2.0 | 11.0 | 0.00 | 0.00 | 0.00 | 60 | 1018.0 |
| 20260509225442 | 55 | 32 | 2.0 | 7.0 | 0.00 | 0.00 | 0.00 | 58 | 1018.0 |
| 20260509224542 | 55 | 33 | 2.0 | 7.0 | 0.00 | 0.00 | 0.00 | 58 | 1018.0 |
| 20260509223642 | 56 | 34 | 1.0 | 5.0 | 0.00 | 0.00 | 0.00 | 58 | 1017.8 |
| 20260509222742 | 56 | 53 | 0.0 | 4.0 | 0.00 | 0.00 | 0.00 | 58 | 1017.8 |
| 20260509221842 | 57 | 48 | 0.0 | 4.0 | 0.00 | 0.00 | 0.00 | 57 | 1017.7 |
| 20260509221003 | 57 | 50 | 1.0 | 4.0 | 0.00 | 0.00 | 0.00 | 58 | 1017.8 |
| 20260509220042 | 57 | 88 | 1.0 | 4.0 | 0.00 | 0.00 | 0.00 | 57 | 1017.9 |
| 20260509215442 | 57 | 125 | 1.0 | 4.0 | 0.00 | 0.00 | 0.00 | 57 | 1017.8 |
| 20260509214542 | 57 | 129 | 0.0 | 4.0 | 0.00 | 0.00 | 0.00 | 55 | 1017.9 |
| 20260509213642 | 57 | 135 | 0.0 | 5.0 | 0.00 | 0.00 | 0.00 | 54 | 1017.8 |
| 20260509212742 | 57 | 115 | 1.0 | 6.0 | 0.00 | 0.00 | 0.00 | 53 | 1017.6 |
| 20260509211903 | 58 | 106 | 1.0 | 6.0 | 0.00 | 0.00 | 0.00 | 53 | 1017.5 |
| 20260509210942 | 58 | 117 | 1.0 | 6.0 | 0.00 | 0.00 | 0.00 | 52 | 1017.3 |
| 20260509210042 | 58 | 111 | 1.0 | 11.0 | 0.00 | 0.00 | 0.00 | 51 | 1017.2 |
| 20260509205442 | 58 | 96 | 1.0 | 11.0 | 0.00 | 0.00 | 0.00 | 51 | 1017.3 |
| 20260509204542 | 58 | 85 | 1.0 | 7.0 | 0.00 | 0.00 | 0.00 | 49 | 1017.3 |
| 20260509203703 | 58 | 110 | 1.0 | 5.0 | 0.00 | 0.00 | 0.00 | 47 | 1017.3 |
| 20260509202742 | 59 | 132 | 1.0 | 6.0 | 0.00 | 0.00 | 0.00 | 46 | 1017.3 |
| 20260509201903 | 59 | 140 | 1.0 | 7.0 | 0.00 | 0.00 | 0.00 | 46 | 1017.2 |
| 20260509200942 | 59 | 104 | 1.0 | 10.0 | 0.00 | 0.00 | 0.00 | 45 | 1017.0 |
| 20260509200042 | 59 | 106 | 1.0 | 10.0 | 0.00 | 0.00 | 0.00 | 44 | 1017.0 |
| 20260509195442 | 59 | 134 | 1.0 | 6.0 | 0.00 | 0.00 | 0.00 | 43 | 1017.1 |
| 20260509194542 | 59 | 112 | 1.0 | 7.0 | 0.00 | 0.00 | 0.00 | 43 | 1017.0 |
| 20260509193642 | 60 | 120 | 2.0 | 7.0 | 0.00 | 0.00 | 0.00 | 42 | 1016.9 |
| 20260509192741 | 60 | 130 | 3.0 | 8.0 | 0.00 | 0.00 | 0.00 | 42 | 1016.7 |
| 20260509191842 | 60 | 147 | 3.0 | 10.0 | 0.00 | 0.00 | 0.00 | 41 | 1016.8 |
| 20260509190942 | 61 | 128 | 2.0 | 10.0 | 0.00 | 0.00 | 0.00 | 42 | 1016.7 |
| 20260509190042 | 61 | 134 | 3.0 | 11.0 | 0.00 | 0.00 | 0.00 | 40 | 1016.9 |
| 20260509185441 | 61 | 145 | 3.0 | 11.0 | 0.00 | 0.00 | 0.00 | 41 | 1016.8 |
| 20260509184542 | 62 | 140 | 3.0 | 11.0 | 0.00 | 0.00 | 0.00 | 41 | 1016.6 |
| 20260509183703 | 62 | 147 | 3.0 | 11.0 | 0.00 | 0.00 | 0.00 | 41 | 1016.6 |
| 20260509182741 | 62 | 148 | 3.0 | 11.0 | 0.00 | 0.00 | 0.00 | 41 | 1016.6 |
| 20260509181903 | 62 | 136 | 2.0 | 8.0 | 0.00 | 0.00 | 0.00 | 41 | 1016.6 |
| 20260509181003 | 63 | 132 | 3.0 | 10.0 | 0.00 | 0.00 | 0.00 | 40 | 1016.4 |
| 20260509180042 | 63 | 145 | 3.0 | 10.0 | 0.00 | 0.00 | 0.00 | 39 | 1016.2 |
| 20260509175442 | 63 | 128 | 3.0 | 13.0 | 0.00 | 0.00 | 0.00 | 39 | 1016.2 |
| 20260509174542 | 64 | 105 | 2.0 | 13.0 | 0.00 | 0.00 | 0.00 | 38 | 1016.2 |
| 20260509173703 | 64 | 112 | 3.0 | 13.0 | 0.00 | 0.00 | 0.00 | 37 | 1016.2 |
| 20260509172803 | 64 | 130 | 4.0 | 13.0 | 0.00 | 0.00 | 0.00 | 38 | 1016.1 |
| 20260509171842 | 64 | 109 | 3.0 | 11.0 | 0.00 | 0.00 | 0.00 | 38 | 1016.2 |
| 20260509170942 | 64 | 137 | 4.0 | 13.0 | 0.00 | 0.00 | 0.00 | 40 | 1016.3 |
| 20260509170042 | 64 | 154 | 4.0 | 14.0 | 0.00 | 0.00 | 0.00 | 44 | 1016.3 |
| 20260509165441 | 64 | 154 | 4.0 | 14.0 | 0.00 | 0.00 | 0.00 | 44 | 1016.3 |
| 20260509164542 | 65 | 140 | 4.0 | 16.0 | 0.00 | 0.00 | 0.00 | 44 | 1016.3 |
| 20260509163641 | 65 | 142 | 4.0 | 16.0 | 0.00 | 0.00 | 0.00 | 44 | 1016.3 |
| 20260509162742 | 65 | 137 | 4.0 | 16.0 | 0.00 | 0.00 | 0.00 | 44 | 1016.3 |
| 20260509161903 | 65 | 150 | 5.0 | 14.0 | 0.00 | 0.00 | 0.00 | 44 | 1016.4 |
| 20260509160941 | 65 | 150 | 5.0 | 18.0 | 0.00 | 0.00 | 0.00 | 44 | 1016.5 |
| 20260509160042 | 66 | 161 | 7.0 | 18.0 | 0.00 | 0.00 | 0.00 | 44 | 1016.6 |
| 20260509155441 | 66 | 163 | 6.0 | 18.0 | 0.00 | 0.00 | 0.00 | 44 | 1016.6 |
| 20260509154542 | 66 | 143 | 5.0 | 14.0 | 0.00 | 0.00 | 0.00 | 43 | 1016.6 |
| 20260509153641 | 67 | 149 | 5.0 | 13.0 | 0.00 | 0.00 | 0.00 | 43 | 1016.6 |
| 20260509152742 | 67 | 157 | 5.0 | 18.0 | 0.00 | 0.00 | 0.00 | 44 | 1016.5 |
| 20260509151902 | 67 | 162 | 7.0 | 18.0 | 0.00 | 0.00 | 0.00 | 43 | 1016.5 |
| 20260509151002 | 67 | 153 | 5.0 | 16.0 | 0.00 | 0.00 | 0.00 | 44 | 1016.5 |
| 20260509150041 | 67 | 158 | 5.0 | 12.0 | 0.00 | 0.00 | 0.00 | 44 | 1016.5 |
| 20260509145441 | 68 | 145 | 4.0 | 12.0 | 0.00 | 0.00 | 0.00 | 43 | 1016.5 |
| 20260509144542 | 68 | 153 | 5.0 | 13.0 | 0.00 | 0.00 | 0.00 | 43 | 1016.3 |
| 20260509143641 | 68 | 155 | 4.0 | 19.0 | 0.00 | 0.00 | 0.00 | 42 | 1016.2 |
| 20260509142741 | 68 | 156 | 5.0 | 22.0 | 0.00 | 0.00 | 0.00 | 43 | 1015.9 |
| 20260509141902 | 68 | 145 | 5.0 | 17.0 | 0.00 | 0.00 | 0.00 | 42 | 1016.0 |
| 20260509140941 | 69 | 76 | 3.0 | 13.0 | 0.00 | 0.00 | 0.00 | 38 | 1016.2 |
| 20260509135441 | 68 | 116 | 3.0 | 12.0 | 0.00 | 0.00 | 0.00 | 39 | 1016.3 |
| 20260509134541 | 69 | 76 | 4.0 | 14.0 | 0.00 | 0.00 | 0.00 | 39 | 1016.3 |
| 20260509133641 | 69 | 68 | 3.0 | 11.0 | 0.00 | 0.00 | 0.00 | 39 | 1016.2 |
| 20260509132741 | 69 | 107 | 2.0 | 11.0 | 0.00 | 0.00 | 0.00 | 40 | 1016.3 |
| 20260509131902 | 69 | 92 | 3.0 | 12.0 | 0.00 | 0.00 | 0.00 | 39 | 1016.3 |
| 20260509131002 | 68 | 95 | 4.0 | 12.0 | 0.00 | 0.00 | 0.00 | 41 | 1016.3 |
| 20260509125441 | 68 | 124 | 3.0 | 13.0 | 0.00 | 0.00 | 0.00 | 40 | 1016.5 |